Albuquerque, NM

5:04 AM MDT on June 23, 2017 (GMT -0600)
Albuquerque International Sunport

Weather History for KABQ - August, 2012

Change the Weather History Date:

Tuesday, August 7, 2012

  Actual Average Record
Temperature  
Mean Temperature 84 °F 77 °F  
Max Temperature 98 °F 88 °F 100 °F (1994)
Min Temperature 69 °F 66 °F 49 °F (1911)
Degree Days  
Heating Degree Days 0 0  
Month to date heating degree days 0 0  
Since 1 June heating degree days 0 4  
Since 1 July heating degree days 0 0  
Cooling Degree Days 19 12  
Month to date cooling degree days 108 84  
Year to date cooling degree days 1216 895  
Since 1 June cooling degree days 1044 797  
Growing Degree Days 34 (Base 50)    
Moisture  
Dew Point 51 °F    
Average Humidity 40    
Maximum Humidity 64    
Minimum Humidity 16    
Precipitation  
Precipitation 0.10 in 0.05 in 0.97 in (1984)
Month to date precipitation 0.38 0.41  
Year to date precipitation 3.55 5.11  
Snow  
Snow 0.00 in - - ()
Month to date snowfall 0.0  
Since 1 June snowfall 0.0  
Since 1 July snowfall 0.0  
Snow Depth 0.00 in    
Sea Level Pressure  
Sea Level Pressure 29.96 in    
Wind  
Wind Speed 6 mph (SSE)    
Max Wind Speed 25 mph    
Max Gust Speed 30 mph    
Visibility 10 miles    
Events Rain , Thunderstorm    
T = Trace of Precipitation, MM = Missing Value Source: NWS Daily Summary

Daily Weather History Graph

Daily Weather History Graph

Search for Another Location

Airport or City:

Trip Planner

Search our weather history database for the weather conditions in past years. The results will help you decide how hot, cold, wet, or windy it might be!

Date:

Astronomy

Aug. 07, 2012 Rise Set
Actual Time 6:20 AM MDT 8:02 PM MDT
Civil Twilight 5:53 AM MDT 8:30 PM MDT
Nautical Twilight 5:20 AM MDT 9:03 PM MDT
Astronomical Twilight 4:45 AM MDT 9:37 PM MDT
Moon 11:02 PM MDT (8/7) 11:54 AM MDT (8/7)
Length of Visible Light 14h 36m
Length of Day
13h 42m
Waning Gibbous, 69% of the Moon is Illuminated
Aug 7
Waning Gibbous
Aug 9
Last Quarter
Aug 17
New
Aug 24
First Quarter
Aug 31
Full

Hourly Weather History & Observations

Time (MDT) Temp. Heat Index Dew Point Humidity Pressure Visibility Wind Dir Wind Speed Gust Speed Precip Events Conditions
12:52 AM 79.0 °F - 51.1 °F 38% 29.96 in 10.0 mi SW 5.8 mph - N/A   Scattered Clouds
1:52 AM 75.9 °F - 52.0 °F 43% 29.96 in 10.0 mi SSW 9.2 mph - N/A   Scattered Clouds
2:52 AM 75.0 °F - 51.1 °F 43% 29.96 in 10.0 mi Variable 4.6 mph - N/A   Partly Cloudy
3:52 AM 72.0 °F - 52.0 °F 49% 29.97 in 10.0 mi SE 5.8 mph - N/A   Partly Cloudy
4:52 AM 70.0 °F - 53.1 °F 55% 29.98 in 10.0 mi ESE 5.8 mph - N/A   Partly Cloudy
5:52 AM 70.0 °F - 52.0 °F 53% 29.99 in 10.0 mi SSE 4.6 mph - N/A   Scattered Clouds
6:52 AM 71.1 °F - 53.1 °F 53% 30.00 in 10.0 mi South 4.6 mph - N/A   Scattered Clouds
7:52 AM 73.0 °F - 53.1 °F 49% 30.01 in 10.0 mi Calm Calm - N/A   Scattered Clouds
8:52 AM 78.1 °F - 52.0 °F 40% 30.01 in 10.0 mi Calm Calm - N/A   Partly Cloudy
9:52 AM 81.0 °F - 50.0 °F 34% 29.99 in 10.0 mi NW 4.6 mph - N/A   Partly Cloudy
10:52 AM 84.9 °F - 50.0 °F 30% 29.99 in 10.0 mi Variable 6.9 mph - N/A   Partly Cloudy
11:52 AM 88.0 °F - 50.0 °F 27% 29.96 in 10.0 mi Variable 3.5 mph - N/A   Scattered Clouds
12:52 PM 90.0 °F - 50.0 °F 25% 29.94 in 10.0 mi South 5.8 mph - N/A   Scattered Clouds
1:52 PM 91.9 °F - 48.0 °F 22% 29.91 in 10.0 mi WSW 6.9 mph - N/A   Scattered Clouds
2:52 PM 95.0 °F - 46.0 °F 19% 29.87 in 10.0 mi NE 4.6 mph - N/A   Scattered Clouds
3:52 PM 95.0 °F - 45.0 °F 18% 29.85 in 10.0 mi Variable 3.5 mph - N/A   Scattered Clouds
4:52 PM 97.0 °F - 43.0 °F 16% 29.83 in 10.0 mi Variable 3.5 mph - N/A   Scattered Clouds
5:47 PM 93.2 °F - 44.6 °F 19% 30.12 in 10.0 mi East 21.9 mph 29.9 mph N/A Thunderstorm Thunderstorm
5:52 PM 91.9 °F - 45.0 °F 20% 29.84 in 10.0 mi East 24.2 mph 29.9 mph N/A Thunderstorm Thunderstorm
6:52 PM 88.0 °F - 46.9 °F 24% 29.87 in 10.0 mi SSW 15.0 mph - 0.00 in Thunderstorm Thunderstorm
7:52 PM 82.0 °F 81.3 °F 54.0 °F 38% 29.92 in 10.0 mi SW 9.2 mph 20.7 mph 0.04 in Thunderstorm Thunderstorm
8:52 PM 75.9 °F - 55.9 °F 50% 30.01 in 10.0 mi North 9.2 mph - 0.00 in Rain , Thunderstorm Light Thunderstorms and Rain
9:12 PM 73.4 °F - 57.2 °F 57% 30.29 in 7.0 mi North 10.4 mph - 0.01 in Rain Rain
9:52 PM 73.0 °F - 60.1 °F 64% 30.02 in 7.0 mi East 8.1 mph - 0.04 in Rain Light Rain
10:52 PM 75.0 °F - 55.0 °F 50% 29.96 in 10.0 mi Variable 5.8 mph 16.1 mph 0.02 in   Overcast
11:52 PM 73.0 °F - 60.1 °F 64% 29.97 in 10.0 mi North 4.6 mph - N/A   Mostly Cloudy